Time,TemperatureF,DewpointF,PressureIn,WindDirection,WindDirectionDegrees,WindSpeedMPH,WindSpeedGustMPH,Humidity,HourlyPrecipIn,Conditions,Clouds,dailyrainin,SoftwareType,DateUTC
2013-07-03 00:05:00,59.0,48.0,-100.00,East,95,4.0,4.0,65,-99.99,,,-99.99,,2013-07-03 06:05:00,
2013-07-03 00:13:00,59.0,48.0,-100.00,East,95,4.0,4.0,65,-99.99,,,-99.99,,2013-07-03 06:13:00,
2013-07-03 00:23:00,58.0,47.0,-100.00,SSE,160,6.0,7.0,67,-99.99,,,-99.99,,2013-07-03 06:23:00,
2013-07-03 00:47:00,59.0,47.0,-100.00,SE,125,5.0,6.0,64,-99.99,,,-99.99,,2013-07-03 06:47:00,
2013-07-03 00:54:00,59.0,47.0,-100.00,SE,130,3.0,4.0,65,-99.99,,,-99.99,,2013-07-03 06:54:00,
2013-07-03 01:04:00,58.0,47.0,-100.00,SSE,160,6.0,7.0,67,-99.99,,,-99.99,,2013-07-03 07:04:00,
2013-07-03 01:23:00,60.0,48.0,-100.00,South,170,7.0,14.0,65,-99.99,,,-99.99,,2013-07-03 07:23:00,
2013-07-03 01:55:00,60.0,49.0,-100.00,SSE,165,10.0,12.0,67,-99.99,,,-99.99,,2013-07-03 07:55:00,
2013-07-03 02:07:00,60.0,48.0,-100.00,South,170,7.0,14.0,65,-99.99,,,-99.99,,2013-07-03 08:07:00,
2013-07-03 02:16:00,60.0,48.0,-100.00,South,170,7.0,14.0,65,-99.99,,,-99.99,,2013-07-03 08:16:00,
2013-07-03 02:23:00,57.0,47.0,-100.00,SSE,165,7.0,9.0,69,-99.99,,,-99.99,,2013-07-03 08:23:00,
2013-07-03 02:45:00,58.0,48.0,-100.00,SSE,165,7.0,10.0,69,-99.99,,,-99.99,,2013-07-03 08:45:00,
2013-07-03 02:55:00,58.0,47.0,-100.00,SSE,160,8.0,10.0,68,-99.99,,,-99.99,,2013-07-03 08:55:00,
2013-07-03 03:04:00,57.0,47.0,-100.00,SSE,165,7.0,9.0,69,-99.99,,,-99.99,,2013-07-03 09:04:00,
2013-07-03 03:16:00,57.0,47.0,-100.00,SSE,165,7.0,9.0,69,-99.99,,,-99.99,,2013-07-03 09:16:00,
2013-07-03 03:46:00,56.0,47.0,-100.00,South,170,6.0,10.0,69,-99.99,,,-99.99,,2013-07-03 09:46:00,
2013-07-03 03:55:00,56.0,47.0,-100.00,SSE,165,5.0,7.0,70,-99.99,,,-99.99,,2013-07-03 09:55:00,
2013-07-03 04:04:00,55.0,46.0,-100.00,South,185,4.0,6.0,71,-99.99,,,-99.99,,2013-07-03 10:04:00,
2013-07-03 04:15:00,55.0,46.0,-100.00,South,185,4.0,6.0,71,-99.99,,,-99.99,,2013-07-03 10:15:00,
2013-07-03 04:23:00,56.0,46.0,-100.00,East,95,1.0,3.0,70,-99.99,,,-99.99,,2013-07-03 10:23:00,
2013-07-03 04:44:00,56.0,46.0,-100.00,SSE,160,1.0,6.0,70,-99.99,,,-99.99,,2013-07-03 10:44:00,
2013-07-03 04:55:00,55.0,46.0,-100.00,NW,305,1.0,4.0,71,-99.99,,,-99.99,,2013-07-03 10:55:00,
2013-07-03 05:06:00,56.0,46.0,-100.00,East,95,1.0,3.0,70,-99.99,,,-99.99,,2013-07-03 11:06:00,
2013-07-03 05:23:00,56.0,45.0,-100.00,ESE,110,2.0,4.0,67,-99.99,,,-99.99,,2013-07-03 11:23:00,
2013-07-03 05:43:00,56.0,46.0,-100.00,SE,140,3.0,6.0,67,-99.99,,,-99.99,,2013-07-03 11:43:00,
2013-07-03 05:53:00,56.0,46.0,-100.00,SSE,160,4.0,6.0,67,-99.99,,,-99.99,,2013-07-03 11:53:00,
2013-07-03 06:07:00,56.0,45.0,-100.00,ESE,110,2.0,4.0,67,-99.99,,,-99.99,,2013-07-03 12:07:00,
2013-07-03 06:23:00,61.0,47.0,-100.00,ESE,115,2.0,4.0,59,-99.99,,,-99.99,,2013-07-03 12:23:00,
2013-07-03 06:43:00,58.0,46.0,-100.00,ESE,120,3.0,4.0,62,-99.99,,,-99.99,,2013-07-03 12:43:00,
2013-07-03 06:56:00,59.0,46.0,-100.00,SE,130,3.0,4.0,62,-99.99,,,-99.99,,2013-07-03 12:56:00,
2013-07-03 07:06:00,61.0,47.0,-100.00,ESE,115,2.0,4.0,59,-99.99,,,-99.99,,2013-07-03 13:06:00,
2013-07-03 07:16:00,61.0,47.0,-100.00,ESE,115,2.0,4.0,59,-99.99,,,-99.99,,2013-07-03 13:16:00,
2013-07-03 07:23:00,66.0,49.0,-100.00,SE,125,4.0,7.0,52,-99.99,,,-99.99,,2013-07-03 13:23:00,
2013-07-03 07:46:00,64.0,47.0,-100.00,SE,135,3.0,7.0,53,-99.99,,,-99.99,,2013-07-03 13:46:00,
2013-07-03 07:54:00,65.0,48.0,-100.00,ESE,115,3.0,6.0,53,-99.99,,,-99.99,,2013-07-03 13:54:00,
2013-07-03 08:06:00,66.0,49.0,-100.00,SE,125,4.0,7.0,52,-99.99,,,-99.99,,2013-07-03 14:06:00,
2013-07-03 08:14:00,66.0,49.0,-100.00,SE,125,4.0,7.0,52,-99.99,,,-99.99,,2013-07-03 14:14:00,
2013-07-03 08:23:00,72.0,50.0,-100.00,SSE,160,11.0,13.0,45,-99.99,,,-99.99,,2013-07-03 14:23:00,
2013-07-03 08:45:00,69.0,49.0,-100.00,SSE,155,7.0,10.0,48,-99.99,,,-99.99,,2013-07-03 14:45:00,
2013-07-03 08:54:00,70.0,50.0,-100.00,South,170,6.0,12.0,47,-99.99,,,-99.99,,2013-07-03 14:54:00,
2013-07-03 09:05:00,72.0,50.0,-100.00,SSE,160,11.0,13.0,45,-99.99,,,-99.99,,2013-07-03 15:05:00,
2013-07-03 09:14:00,72.0,50.0,-100.00,SSE,160,11.0,13.0,45,-99.99,,,-99.99,,2013-07-03 15:14:00,
2013-07-03 09:23:00,77.0,51.0,-100.00,SSE,165,11.0,14.0,41,-99.99,,,-99.99,,2013-07-03 15:23:00,
2013-07-03 09:46:00,74.0,50.0,-100.00,SSE,150,11.0,14.0,43,-99.99,,,-99.99,,2013-07-03 15:46:00,
2013-07-03 09:55:00,75.0,50.0,-100.00,SSE,160,11.0,13.0,41,-99.99,,,-99.99,,2013-07-03 15:55:00,
2013-07-03 10:06:00,77.0,51.0,-100.00,SSE,165,11.0,14.0,41,-99.99,,,-99.99,,2013-07-03 16:06:00,
2013-07-03 10:23:00,81.0,51.0,-100.00,South,190,12.0,16.0,35,-99.99,,,-99.99,,2013-07-03 16:23:00,
2013-07-03 10:46:00,79.0,52.0,-100.00,North,-999,-999.0,-999.0,39,-99.99,,,-99.99,,2013-07-03 16:46:00,
2013-07-03 10:52:00,81.0,49.0,-100.00,SSE,160,13.0,18.0,33,-99.99,,,-99.99,,2013-07-03 16:52:00,
2013-07-03 10:55:00,79.0,52.0,-100.00,SSE,160,9.0,14.0,38,-99.99,,,-99.99,,2013-07-03 16:55:00,
2013-07-03 11:23:00,82.0,50.0,-100.00,SSE,165,12.0,19.0,32,-99.99,,,-99.99,,2013-07-03 17:23:00,
2013-07-03 11:46:00,81.0,49.0,-100.00,SSE,160,13.0,18.0,33,-99.99,,,-99.99,,2013-07-03 17:46:00,
2013-07-03 12:15:00,82.0,50.0,-100.00,SSE,165,12.0,19.0,32,-99.99,,,-99.99,,2013-07-03 18:15:00,
2013-07-03 12:23:00,82.0,49.0,-100.00,SSE,165,14.0,18.0,31,-99.99,,,-99.99,,2013-07-03 18:23:00,
2013-07-03 13:04:00,82.0,49.0,-100.00,SSE,165,14.0,18.0,31,-99.99,,,-99.99,,2013-07-03 19:04:00,
2013-07-03 13:15:00,82.0,49.0,-100.00,SSE,165,14.0,18.0,31,-99.99,,,-99.99,,2013-07-03 19:15:00,
2013-07-03 13:46:00,84.0,51.0,-100.00,SSE,160,14.0,18.0,31,-99.99,,,-99.99,,2013-07-03 19:46:00,
2013-07-03 13:54:00,84.0,49.0,-100.00,SE,145,12.0,19.0,30,-99.99,,,-99.99,,2013-07-03 19:54:00,
2013-07-03 14:03:00,84.0,48.0,-100.00,South,185,14.0,20.0,28,-99.99,,,-99.99,,2013-07-03 20:03:00,
2013-07-03 14:13:00,84.0,48.0,-100.00,South,185,14.0,20.0,28,-99.99,,,-99.99,,2013-07-03 20:13:00,
2013-07-03 14:46:00,84.0,49.0,-100.00,SSE,160,14.0,20.0,29,-99.99,,,-99.99,,2013-07-03 20:46:00,
2013-07-03 15:05:00,84.0,50.0,-100.00,SSW,195,9.0,19.0,30,-99.99,,,-99.99,,2013-07-03 21:05:00,
2013-07-03 15:12:00,84.0,50.0,-100.00,SSW,195,9.0,19.0,30,-99.99,,,-99.99,,2013-07-03 21:12:00,
2013-07-03 15:44:00,85.0,50.0,-100.00,South,190,11.0,22.0,30,-99.99,,,-99.99,,2013-07-03 21:44:00,
2013-07-03 15:55:00,85.0,49.0,-100.00,South,175,12.0,16.0,28,-99.99,,,-99.99,,2013-07-03 21:55:00,
2013-07-03 16:44:00,85.0,48.0,-100.00,South,170,12.0,18.0,28,-99.99,,,-99.99,,2013-07-03 22:44:00,
2013-07-03 16:56:00,86.0,48.0,-100.00,South,190,10.0,14.0,27,-99.99,,,-99.99,,2013-07-03 22:56:00,
2013-07-03 17:03:00,86.0,47.0,-100.00,South,190,8.0,13.0,26,-99.99,,,-99.99,,2013-07-03 23:03:00,
2013-07-03 17:13:00,86.0,47.0,-100.00,South,190,8.0,13.0,26,-99.99,,,-99.99,,2013-07-03 23:13:00,
2013-07-03 17:43:00,86.0,49.0,-100.00,South,170,9.0,13.0,27,-99.99,,,-99.99,,2013-07-03 23:43:00,
2013-07-03 17:56:00,86.0,49.0,-100.00,South,185,11.0,12.0,27,-99.99,,,-99.99,,2013-07-03 23:56:00,
2013-07-03 18:02:00,86.0,50.0,-100.00,SSE,160,9.0,11.0,28,-99.99,,,-99.99,,2013-07-04 00:02:00,
2013-07-03 18:13:00,86.0,50.0,-100.00,SSE,160,9.0,11.0,28,-99.99,,,-99.99,,2013-07-04 00:13:00,
2013-07-03 18:45:00,85.0,51.0,-100.00,SSE,150,9.0,11.0,30,-99.99,,,-99.99,,2013-07-04 00:45:00,
2013-07-03 18:57:00,84.0,52.0,-100.00,SE,130,9.0,12.0,32,-99.99,,,-99.99,,2013-07-04 00:57:00,
2013-07-03 19:03:00,84.0,51.0,-100.00,SSE,155,9.0,12.0,32,-99.99,,,-99.99,,2013-07-04 01:03:00,
2013-07-03 19:15:00,84.0,51.0,-100.00,SSE,155,9.0,12.0,32,-99.99,,,-99.99,,2013-07-04 01:15:00,
2013-07-03 19:43:00,82.0,51.0,-100.00,SE,140,7.0,10.0,34,-99.99,,,-99.99,,2013-07-04 01:43:00,
2013-07-03 20:05:00,80.0,54.0,-100.00,SE,140,6.0,9.0,41,-99.99,,,-99.99,,2013-07-04 02:05:00,
2013-07-03 20:12:00,80.0,54.0,-100.00,SE,140,6.0,9.0,41,-99.99,,,-99.99,,2013-07-04 02:12:00,
2013-07-03 20:45:00,77.0,53.0,-100.00,SSE,150,6.0,6.0,44,-99.99,,,-99.99,,2013-07-04 02:45:00,
2013-07-03 20:56:00,75.0,53.0,-100.00,SSE,155,4.0,6.0,46,-99.99,,,-99.99,,2013-07-04 02:56:00,
2013-07-03 21:04:00,73.0,54.0,-100.00,SE,145,4.0,6.0,50,-99.99,,,-99.99,,2013-07-04 03:04:00,
2013-07-03 21:14:00,73.0,54.0,-100.00,SE,145,4.0,6.0,50,-99.99,,,-99.99,,2013-07-04 03:14:00,
2013-07-03 21:45:00,70.0,56.0,-100.00,South,170,6.0,7.0,60,-99.99,,,-99.99,,2013-07-04 03:45:00,
2013-07-03 21:57:00,69.0,57.0,-100.00,South,170,4.0,5.0,65,-99.99,,,-99.99,,2013-07-04 03:57:00,
2013-07-03 22:02:00,68.0,57.0,-100.00,SSE,165,4.0,6.0,67,-99.99,,,-99.99,,2013-07-04 04:02:00,
2013-07-03 22:11:00,68.0,57.0,-100.00,SSE,165,4.0,6.0,67,-99.99,,,-99.99,,2013-07-04 04:11:00,
2013-07-03 22:43:00,67.0,57.0,-100.00,SSE,165,4.0,6.0,70,-99.99,,,-99.99,,2013-07-04 04:43:00,
2013-07-03 22:52:00,67.0,58.0,-100.00,SSE,165,6.0,8.0,72,-99.99,,,-99.99,,2013-07-04 04:52:00,
2013-07-03 23:01:00,68.0,58.0,-100.00,SSE,165,7.0,9.0,71,-99.99,,,-99.99,,2013-07-04 05:01:00,
2013-07-03 23:12:00,68.0,58.0,-100.00,SSE,165,7.0,9.0,71,-99.99,,,-99.99,,2013-07-04 05:12:00,
2013-07-03 23:43:00,67.0,56.0,-100.00,SSE,160,6.0,8.0,66,-99.99,,,-99.99,,2013-07-04 05:43:00,
2013-07-03 23:52:00,68.0,55.0,-100.00,South,180,6.0,8.0,64,-99.99,,,-99.99,,2013-07-04 05:52:00,